Location: The Saddle
(36.8333°N, 80.3417°W)
Time: 09:30:35
(UTC-04:00)

Vanguard 2 Rocket - Pass Details

Date: 05 February 2023
Orbit: 555 x 3316 km, 32.9° (Epoch: 25 March)

Event Time Altitude Azimuth Distance (km) Brightness Sun altitude
Rises 14:12:32 0° 269° (W) 2,739 9.7 32.6°
Reaches altitude 10° 14:14:56 10° 256° (WSW) 1,826 9.2 32.3°
Maximum altitude 14:18:17 27° 196° (SSW) 1,150 9.6 32.0°
Drops below altitude 10° 14:22:14 10° 138° (SE) 2,158 9.1 31.6°
Sets 14:25:20 0° 127° (SE) 3,369 9.9 31.3°
